Tracking 19246 objects as of 21-Sep-2018
HD Live streaming from Space Station
objects crossing your sky now

FENGYUN 1C DEB

Track FENGYUN 1C DEB now!
10-day predictions


NORAD ID: 30656
Int'l Code: 1999-025APN
Perigee: 803.6 km
Apogee: 882.0 km
Inclination: 99.0 °
Period: 101.6 minutes
Semi major axis: 7213 km
RCS: 0.021 m2 (small)
Launch date: May 10, 1999
Source: People's Republic of China (PRC)
Launch site: Taiyaun Space Center, China (TSC)

Note: This is SATELLITE DEBRIS
aabbcc
Your satellite tracking list
Your tracking list is empty




NASA's NSSDC Master Catalog

Two Line Element Set (TLE):
1 30656U 99025APN 18263.75358463 +.00000737 +00000-0 +38401-3 0  9992
2 30656 098.9766 344.6538 0054393 117.3319 243.3406 14.16954148595474
Source of the keplerian elements: AFSPC